[[{"header":{"parameterUnit":"m.s-1","parameterCategory":1,"la1":30.2991,"la2":30.254,"lo1":-89.0895,"lo2":-89.0444,"dy":0.0017,"dx":0.0017,"nx":28,"ny":28,"refTime":"2024-05-24T09:00:00:Z","depth":0,"parameterNumber":2,"parameterNumberName":"U-component_of_WINDS"},"data":[0,0,0,0,0,0,0,0,0,0,0,0,0,0,0,0,0,0,0,0,0,0,0,0,0,0,0,0,0,0,0,0,0,0,0,0,0,0,0,0,0,0,0,0,0,0,0,0,0,0,0,0,0,0,0,0,0,0,0.2636,0.2635,0,0.2572,0.2571,0.257,0.2543,0.2543,0.2543,0.2543,0.2473,0.2471,0.2469,0,0,0,0,0,0,0,0,0,0,0,0,0,0.2728,0.2726,0.2636,0.2635,0.2634,0.2572,0.2571,0.257,0.2543,0.2543,0.2543,0.2543,0.2474,0.2472,0.2469,0,0,0,0,0,0,0,0,0,0,0,0,0,0.2678,0.2726,0.2636,0.2613,0.261,0.2572,0.2571,0.257,0.2543,0.2543,0.2543,0.2543,0.2475,0.2472,0.2469,0.2447,0,0,0.246,0.2459,0,0,0,0,0,0,0,0,0.2681,0.2675,0.2617,0.2614,0.2611,0.2565,0.2578,0.2529,0.2543,0.2568,0.2543,0.2543,0.2504,0.2498,0.2486,0.2444,0.2441,0.246,0.2458,0.2457,0.2456,0,0,0,0,0,0,0,0.2684,0.2677,0.261,0.2616,0.2613,0.2604,0.2597,0.2568,0.2535,0.2566,0.2564,0.2557,0.2502,0.2489,0.2484,0.244,0.246,0.2457,0.2455,0.2454,0.2375,0.2375,0,0,0,0,0,0,0.2692,0.268,0.2612,0.2608,0.2647,0.2602,0.2595,0.258,0.2536,0.2529,0.2557,0.2556,0.2494,0.2487,0.2481,0.2452,0.2457,0.2454,0.2452,0.2375,0.2375,0.2374,0,0,0,0,0,0,0.2694,0.2687,0.2615,0.2644,0.2634,0.26,0.2584,0.2579,0.2565,0.2529,0.2522,0.255,0.2493,0.2485,0.2456,0.2449,0.2453,0.245,0.2376,0.2375,0.2375,0.2393,0,0,0,0,0,0,0.2697,0.2688,0.2681,0.2644,0.2633,0.2592,0.2584,0.2577,0.2561,0.2559,0.2521,0.2514,0.2493,0.246,0.2453,0.2445,0.2448,0.2376,0.2375,0.2375,0.2393,0.2393,0.2394,0,0,0,0,0,0.2701,0.2688,0.268,0.2672,0.2623,0.2592,0.2585,0.2562,0.2561,0.2552,0.2528,0.2515,0.2451,0.2458,0.2449,0.244,0.2376,0.2376,0.2375,0.2393,0.2393,0.2394,0,0,0,0,0,0,0.2723,0.2683,0.2674,0.2649,0.2624,0.2587,0.2576,0.2564,0.2538,0.2537,0.2508,0.25,0.2472,0.2453,0.2461,0.2415,0.2412,0.241,0.2429,0.2429,0.243,0.2434,0.2445,0,0,0,0,0,0.2726,0.2705,0.267,0.2652,0.264,0.261,0.2596,0.258,0.2553,0.2541,0.2516,0.2488,0.2461,0.2444,0.2418,0.239,0.238,0.2379,0.238,0.238,0.2378,0.236,0.2358,0.2372,0.2372,0.2372,0,0,0.273,0.2705,0.2694,0.2656,0.2635,0.2612,0.2601,0.2579,0.2561,0.2537,0.2508,0.2488,0.2455,0.2426,0.2411,0.2409,0.2372,0.2379,0.238,0.2377,0.2359,0.2357,0.2356,0.2371,0.2371,0.2372,0,0,0.2726,0.2706,0.2688,0.2667,0.2635,0.2615,0.2611,0.2575,0.2562,0.2532,0.2513,0.2491,0.2446,0.2422,0.2405,0.239,0.2376,0.2382,0.2384,0.2366,0.2365,0.2364,0.2357,0.2355,0.238,0.238,0.238,0,0.2735,0.2702,0.268,0.2657,0.264,0.2619,0.2598,0.2579,0.2539,0.2527,0.2525,0.2467,0.2443,0.2407,0.2404,0.2391,0.2383,0.2386,0.2367,0.2366,0.2364,0.2357,0.2355,0.2381,0.2381,0.2381,0.2381,0,0.2714,0.2691,0.2679,0.2643,0.2625,0.2604,0.2576,0.2559,0.2544,0.2524,0.2492,0.2463,0.243,0.242,0.2406,0.2381,0.238,0.2373,0.2369,0.2364,0.2357,0.2354,0.2382,0.2382,0.2382,0.2382,0,0,0.2723,0.2674,0.267,0.2652,0.2615,0.2596,0.2573,0.2541,0.2526,0.25,0.2478,0.244,0.2432,0.2412,0.2394,0.2379,0.2367,0.2373,0.2372,0.2372,0.2335,0.234,0.2338,0.2358,0.2357,0.2357,0.2338,0,0.2713,0.2673,0.2651,0.2618,0.2596,0.2574,0.2553,0.2527,0.2507,0.2483,0.246,0.2433,0.2426,0.2414,0.2398,0.2372,0.2359,0.2373,0.2335,0.2334,0.2343,0.2334,0.234,0.2323,0.2335,0.2334,0.2334,0,0.2697,0.2671,0.2637,0.2601,0.259,0.2572,0.254,0.2519,0.2487,0.2473,0.245,0.2432,0.2404,0.2403,0.2363,0.2373,0.2356,0.234,0.2339,0.2334,0.2333,0.2327,0.2318,0.2315,0.233,0.233,0.233,0,0.2705,0.2662,0.2635,0.2621,0.2579,0.2566,0.2547,0.2517,0.2498,0.2469,0.2456,0.2424,0.2407,0.2381,0.2354,0.2356,0.2316,0.2313,0.2301,0.2302,0.2293,0.2294,0.2279,0.2284,0.2284,0.2284,0.2285,0,0.2696,0.2676,0.2639,0.2622,0.2597,0.2571,0.2547,0.2526,0.2498,0.2476,0.2455,0.2433,0.24,0.2374,0.2352,0.2321,0.2313,0.2299,0.2294,0.2301,0.2302,0.2288,0.2288,0.2284,0.2284,0.2284,0.2284,0,0.2702,0.2676,0.2646,0.2608,0.2597,0.2581,0.2547,0.2529,0.2507,0.2479,0.247,0.2436,0.2404,0.2374,0.2332,0.2317,0.2284,0.2278,0.2295,0.2292,0.2282,0.2283,0.2257,0.2251,0.2261,0.2261,0.2261,0,0.2697,0.2681,0.2641,0.2625,0.2607,0.2582,0.2563,0.2535,0.2516,0.2478,0.2464,0.243,0.2402,0.2351,0.2321,0.2287,0.2279,0.2272,0.2273,0.228,0.2276,0.2277,0.2274,0.2272,0.2272,0.2272,0.2272,0,0.2692,0.2679,0.2654,0.2623,0.2602,0.2576,0.2549,0.2537,0.2504,0.2482,0.245,0.2428,0.2384,0.235,0.2313,0.2291,0.2275,0.2272,0.2267,0.2273,0.2283,0.2276,0.2294,0.2272,0.2272,0.2272,0.2272,0.2272,0.2691,0.2675,0.2644,0.2615,0.2592,0.2567,0.2548,0.2524,0.2497,0.246,0.2445,0.2411,0.2377,0.2325,0.2303,0.2275,0.2272,0.2265,0.2263,0.2262,0.2262,0.2289,0.2268,0.2268,0.2268,0.2268,0.2268,0,0.2683,0.2662,0.2636,0.2599,0.2576,0.2565,0.2534,0.2515,0.2486,0.2456,0.2429,0.239,0.2356,0.2323,0.2287,0.227,0.2262,0.2261,0.2262,0.2256,0.2268,0.2275,0.2269,0.2269,0.2269,0.2269,0.2269,0.2269,0.2676,0.2647,0.2631,0.259,0.2568,0.2536,0.2519,0.2495,0.2471,0.2429,0.2401,0.238,0.2348,0.2309,0.2277,0.2268,0.2254,0.2256,0.2244,0.2256,0.2256,0.2256,0.2263,0.2254,0.2254,0.2235,0.2235,0.2234]},{"header":{"parameterUnit":"m.s-1","parameterCategory":1,"la1":30.2991,"la2":30.254,"lo1":-89.0895,"lo2":-89.0444,"dy":0.0017,"dx":0.0017,"nx":28,"ny":28,"refTime":"2024-05-24T09:00:00:Z","depth":0,"parameterNumber":3,"parameterNumberName":"V-component_of_WINDS"},"data":[0,0,0,0,0,0,0,0,0,0,0,0,0,0,0,0,0,0,0,0,0,0,0,0,0,0,0,0,0,0,0,0,0,0,0,0,0,0,0,0,0,0,0,0,0,0,0,0,0,0,0,0,0,0,0,0,0,0,5.893,5.8932,0,5.9058,5.9059,5.9061,5.901,5.9008,5.9005,5.9002,5.9125,5.9131,5.9137,0,0,0,0,0,0,0,0,0,0,0,0,0,5.8635,5.8641,5.893,5.8932,5.8934,5.9058,5.9059,5.9061,5.9011,5.9007,5.9004,5.9,5.9123,5.913,5.9138,0,0,0,0,0,0,0,0,0,0,0,0,0,5.8763,5.8643,5.893,5.8924,5.8924,5.9057,5.9059,5.9062,5.9012,5.9007,5.9003,5.8999,5.9121,5.913,5.9139,5.9283,0,0,5.9166,5.917,0,0,0,0,0,0,0,0,5.8756,5.8774,5.8923,5.8924,5.8925,5.9014,5.9,5.9136,5.9013,5.8978,5.9002,5.8997,5.9091,5.9102,5.9136,5.9289,5.9294,5.9167,5.9173,5.9176,5.9179,0,0,0,0,0,0,0,5.8747,5.8768,5.898,5.8925,5.8927,5.8912,5.8925,5.9026,5.9058,5.8981,5.8978,5.8994,5.9091,5.9127,5.9138,5.9296,5.9167,5.9175,5.918,5.9184,5.9571,5.9575,0,0,0,0,0,0,5.8739,5.8761,5.8976,5.8984,5.8828,5.8921,5.8935,5.899,5.9057,5.9063,5.8998,5.8991,5.9114,5.9128,5.9143,5.9314,5.9176,5.9185,5.919,5.9566,5.9572,5.9577,0,0,0,0,0,0,5.8733,5.8759,5.8971,5.8872,5.8898,5.893,5.8992,5.8995,5.9031,5.9069,5.9074,5.9029,5.9111,5.913,5.9248,5.9318,5.9189,5.9197,5.956,5.9568,5.9574,5.966,0,0,0,0,0,0,5.8724,5.8757,5.8814,5.8874,5.8903,5.9078,5.8996,5.9,5.9048,5.904,5.91,5.9106,5.9109,5.9235,5.9257,5.9328,5.9204,5.9554,5.9563,5.9572,5.9651,5.9669,5.9685,0,0,0,0,0,5.8714,5.8832,5.8817,5.8844,5.8976,5.9082,5.9099,5.9102,5.9054,5.911,5.9134,5.9104,5.9307,5.9248,5.9272,5.9347,5.955,5.9561,5.9571,5.9644,5.9666,5.9685,0,0,0,0,0,0,5.8778,5.884,5.8824,5.8966,5.9019,5.9073,5.9145,5.9126,5.9193,5.9183,5.9182,5.9195,5.9317,5.9344,5.9277,5.9488,5.942,5.9437,5.9467,5.9488,5.9505,5.9495,5.9212,0,0,0,0,0,5.8809,5.8892,5.8941,5.9061,5.9089,5.9112,5.9158,5.9156,5.9211,5.9233,5.9265,5.9317,5.9392,5.9442,5.9513,5.9655,5.9665,5.9718,5.9735,5.9748,5.9762,5.9836,5.9859,5.9613,5.9613,5.9612,0,0,5.8873,5.8917,5.8969,5.9075,5.9116,5.9199,5.9132,5.9223,5.9284,5.9246,5.936,5.9386,5.9443,5.9573,5.9632,5.9599,5.9833,5.9762,5.9773,5.9779,5.985,5.9873,5.9894,5.962,5.9619,5.9618,0,0,5.9031,5.9075,5.9178,5.9221,5.9285,5.93,5.9325,5.9382,5.9398,5.9514,5.9486,5.9557,5.9687,5.9729,5.9767,5.994,5.9914,5.9963,6.0051,6.0123,6.0142,6.016,6.0219,6.0241,5.9977,5.9977,5.9977,0,5.9102,5.923,5.9233,5.9327,5.9373,5.9344,5.9447,5.9488,5.9571,5.9602,5.9564,5.9726,5.9763,5.9901,5.9943,5.9976,6.0002,5.9956,6.014,6.0157,6.0173,6.023,6.0252,5.9982,5.9982,5.9981,5.9981,0,5.9312,5.9401,5.9476,5.9559,5.9613,5.9711,5.9727,5.9781,5.9774,5.9792,5.9907,5.9951,6.0029,6.0062,6.0055,6.0199,6.0176,6.014,6.0071,6.0202,6.0255,6.0277,5.999,5.9988,5.9987,5.9985,0,0,5.9515,5.9599,5.9626,5.9662,5.973,5.9797,5.9892,5.9971,6.0017,6.0074,6.0152,6.0263,6.0229,6.0272,6.0269,6.0333,6.0465,6.0288,6.0289,6.0318,6.0622,6.0648,6.0674,6.0448,6.0452,6.0456,6.0617,0,5.9678,5.9848,5.9853,6.0007,6.0087,6.006,6.0142,6.0191,6.021,6.0278,6.0297,6.0375,6.0326,6.0351,6.0413,6.0436,6.0525,6.0424,6.0517,6.0521,6.0503,6.0702,6.0731,6.0881,6.0638,6.0641,6.0644,0,5.9891,5.9957,6.012,6.0174,6.0208,6.0283,6.0354,6.0421,6.0474,6.0483,6.0532,6.0519,6.0613,6.0542,6.067,6.0601,6.0639,6.0656,6.0661,6.0669,6.059,6.0713,6.0929,6.0951,6.0677,6.0674,6.0672,0,6.002,6.015,6.0263,6.0295,6.0363,6.0415,6.0445,6.0495,6.0541,6.0603,6.0632,6.0703,6.0742,6.0796,6.0802,6.075,6.0929,6.086,6.0937,6.0937,6.0975,6.0972,6.1198,6.1002,6.1002,6.1002,6.1001,0,6.02,6.03,6.0322,6.0392,6.0502,6.0506,6.0614,6.0639,6.0683,6.0755,6.0735,6.0802,6.0807,6.0875,6.088,6.0983,6.1001,6.1009,6.1008,6.101,6.1009,6.1034,6.1023,6.1008,6.1006,6.1005,6.1004,0,6.0363,6.0382,6.0504,6.0558,6.0573,6.0652,6.0696,6.0761,6.0778,6.0869,6.089,6.0915,6.0994,6.1006,6.1098,6.1101,6.1225,6.1215,6.1208,6.1206,6.1282,6.1274,6.153,6.1563,6.1348,6.135,6.1351,0,6.0477,6.0553,6.0615,6.0663,6.0696,6.0774,6.0821,6.0827,6.0876,6.0942,6.0999,6.1076,6.1138,6.1265,6.129,6.136,6.135,6.1435,6.136,6.1358,6.1349,6.1344,6.135,6.1449,6.1451,6.1453,6.1455,0,6.0675,6.0681,6.0751,6.0825,6.0883,6.0941,6.0995,6.1035,6.1047,6.1103,6.1185,6.1233,6.1328,6.1404,6.1473,6.15,6.1479,6.1478,6.1499,6.1501,6.1493,6.1496,6.1245,6.1472,6.147,6.1469,6.1468,6.1467,6.0816,6.0882,6.0936,6.1014,6.1056,6.1107,6.117,6.1195,6.1264,6.1343,6.1341,6.143,6.1479,6.157,6.1602,6.1669,6.1641,6.1672,6.168,6.1687,6.1694,6.1484,6.1682,6.1681,6.1681,6.168,6.168,0,6.1012,6.1045,6.1118,6.1195,6.1256,6.1233,6.1292,6.1343,6.1423,6.1471,6.1533,6.1625,6.1699,6.1729,6.18,6.1848,6.184,6.1867,6.1862,6.1868,6.1716,6.169,6.1872,6.1872,6.1872,6.1872,6.1872,6.1872,6.1121,6.1231,6.1242,6.1371,6.1403,6.1492,6.1527,6.1572,6.1611,6.1716,6.1778,6.1798,6.1838,6.1912,6.1977,6.1983,6.2009,6.204,6.2042,6.1899,6.1879,6.1861,6.1836,6.2046,6.2046,6.2189,6.219,6.2191]}]]